PILOTS ONLINE: 258    ATC ONLINE: 23

PALU

Cape Lisburne LRRS Airport

Location

IATA LUR
City Cape Lisburne
Country  United States
Latitude 68° 52' 30" N
Longitude 166° 6' 36" W
Elevation 16 ft
Type Medium Airport

Map

Weather

METAR
2014/10/25 06:05
PALU 250605Z AUTO 19020KT 10SM BKN037 00/M03 A2965 RMK AO2 SLP040
TAF
2012/01/10 17:27
TAF TAF PALU 1017/1120 20020KT 8000 BLSN SKC QNH2972INS 
      BECMG 1100/1101 31012KT 9999 NSW SCT060 QNH2969INS TM23/1103Z TM29/1118Z 
      AMD 101723 LAST NO 
      AMDS

Runways

08/26 4800 ft / 135 ft

Outbound flights

Callsign Flying to Pilot ATD/STD ETA Aircraft

Inbound flights

Callsign Flying from Pilot ATD ETA Aircraft